Simultaneous Nadir Overpasses (SNOs) Predictions

Prediction of SNOs between AURA and NPP Satellite Orbit:

Table of predicted SNOs for the next 14.0 days since TLE Epoch: 10/27/2012
Index Date (AURA) Time (AURA) AURA Lat,Lon Date (NPP) Time (NPP) NPP Lat,Lon Distance(km) Time Diff (sec)
1 10/28/2012 12:14:14 -79.60, 73.86 10/28/2012 12:13:13 -79.60, 73.71 3.05 61
2 10/28/2012 13:03:33 79.86,-116.57 10/28/2012 13:03:49 79.85,-116.64 1.48 16
3 10/31/2012 04:30:35 -79.78,-168.97 10/31/2012 04:30:03 -79.78,-168.90 1.47 32
4 10/31/2012 05:19:58 79.88, -0.50 10/31/2012 05:20:44 79.88, -0.65 2.99 46
5 11/02/2012 20:47:00 -79.80, -52.88 11/02/2012 20:46:59 -79.80, -52.90 0.34 1
6 11/02/2012 21:34:24 81.74, 161.02 11/02/2012 21:35:37 81.08, 160.28 74.92 73
7 11/05/2012 12:14:00
